星链-31192 (STARLINK-31192 )

导读

STARLINK-31192是美国SpaceX公司星链(Starlink)卫星互联网项目的一员,于2024年1月15日发射升空。星链计划旨在构建覆盖全球的低轨卫星星座,为偏远地区、网络基础设施匮乏区域提供高速低延迟宽带互联网服务。该卫星部署于近地轨道,是星链规划中数千颗组网卫星的组成部分,助力实现全球无缝网络覆盖,同时也引发了天文观测与轨道空间利用相关讨论。

Basic Information
目录编号:
58794
目录名称:
STARLINK-31192
国际标识:
2024-012H
轨道中心:
EARTH
卫星名称:
星链-31192
卫星全名:
星链-31192 (STARLINK-31192 )
卫星状态:
在轨 (已飞行963 天)
发射日期:
2024-01-15 UTC
国别 :
美国 (US)
星等 :
--
Orbit Information
数据来源 国际轨道数据
星历时间: 2026-09-04T08:11:42+0800
8小时前
查看轨道信息
半长轴: 6861.189km
偏心率: 0.0001292
轨道倾角: 43.000°
近地点辐角 280.028°
升交点赤经 238.521°
平近点角 80.042°
近地点: 482.165km
远地点: 483.939km
周期: 94.267分钟
每日圈数: 15.275791
Detailed Information
固有亮度:
5
最大亮度:
0.3
卫星平台:
Starlink v2.0 mini
覆盖范围:
全球
运营商:
太空探索技术公司
运营商所在国:
美国
制造商(研发单位):
太空探索技术公司
制造商所在国:
美国
使用方式:
暂无
Satellite Introduction
星链(Starlink)计划是由太空探索技术公司(SpaceX)提出的一个巨型低轨卫星互联网星座项目,计划在2019年至2024年间在太空搭建由约1.2万颗卫星组成的“星链”网络,其中1584颗将部署在地球上空550千米处的近地轨道,并从2020年开始工作。该卫星仍在工作。
2D Orbit Map
3D Orbit Map
Orbit Altitude Analysis Chart
Orbit Inclination Analysis Chart
Orbit Comprehensive Analysis Chart
View Comprehensive Chart
Conjunction Data List
Event ID Objects TCA Miss Dist (km) Collision Risk Probability Collision Risk Index (CRI) Action
CDM_260905-072105-879405-935921
2026-09-05T
07:21:09+0000
2.677 km
极远距离
1.068246E-6 低风险 0.36